Tracking 23726 objects as of 24-Sep-2021
HD Live streaming from Space Station
objects crossing your sky now

DMSP 5D-2 F13 DEB

Track DMSP 5D-2 F13 DEB now!
10-day predictions


NORAD ID: 40500
Int'l Code: 1995-015CP
Perigee: 814.6 km
Apogee: 856.7 km
Inclination: 98.8 °
Period: 101.5 minutes
Semi major axis: 7206 km
RCS: Unknown
Launch date: March 24, 1995
Source: United States (US)
Launch site: AIR FORCE WESTERN TEST RANGE (AFWTR)

Note: This is SATELLITE DEBRIS
aabbcc
Your satellite tracking list
Your tracking list is empty




NASA's NSSDC Master Catalog

Two Line Element Set (TLE):
1 40500U 95015CP  21266.79375652  .00002046  00000-0  99666-3 0  9991
2 40500  98.8391 286.3541 0029210 237.9170 121.9169 14.19055050337519
Source of the keplerian elements: AFSPC